| time (UTC) | temp F | wind direction | speed MPH | gust MPH | rain 1hr in | rain 24hr in | rain mn in | humidity % | barometer mb |
| 20260504035551 | 57 | 223 | 2.0 | 6.0 | 0.00 | 0.00 | 0.00 | 36 | |
| 20260504034538 | 58 | 230 | 1.0 | 6.0 | 0.00 | 0.00 | 0.00 | 36 | |
| 20260504033530 | 58 | 219 | 1.0 | 6.0 | 0.00 | 0.00 | 0.00 | 37 | |
| 20260504032522 | 58 | 221 | 2.0 | 5.0 | 0.00 | 0.00 | 0.00 | 36 | |
| 20260504031529 | 58 | 224 | 1.0 | 6.0 | 0.00 | 0.00 | 0.00 | 36 | |
| 20260504030522 | 58 | 218 | 1.0 | 2.0 | 0.00 | 0.00 | 0.00 | 35 | |
| 20260504025537 | 58 | 222 | 1.0 | 6.0 | 0.00 | 0.00 | 0.00 | 35 | |
| 20260504024521 | 59 | 220 | 1.0 | 3.0 | 0.00 | 0.00 | 0.00 | 34 | |
| 20260504023530 | 59 | 223 | 1.0 | 6.0 | 0.00 | 0.00 | 0.00 | 34 | |
| 20260504022542 | 59 | 217 | 1.0 | 3.0 | 0.00 | 0.00 | 0.00 | 34 | |
| 20260504021530 | 59 | 214 | 1.0 | 3.0 | 0.00 | 0.00 | 0.00 | 34 | |
| 20260504020522 | 59 | 222 | 0.0 | 2.0 | 0.00 | 0.00 | 0.00 | 35 | |
| 20260504015530 | 60 | 211 | 1.0 | 2.0 | 0.00 | 0.00 | 0.00 | 34 | |
| 20260504014522 | 60 | 221 | 1.0 | 3.0 | 0.00 | 0.00 | 0.00 | 32 | |
| 20260504013530 | 61 | 219 | 1.0 | 2.0 | 0.00 | 0.00 | 0.00 | 32 | |
| 20260504012522 | 61 | 221 | 1.0 | 2.0 | 0.00 | 0.00 | 0.00 | 31 | |
| 20260504011530 | 62 | 229 | 1.0 | 3.0 | 0.00 | 0.00 | 0.00 | 30 | |
| 20260504010522 | 63 | 227 | 2.0 | 6.0 | 0.00 | 0.00 | 0.00 | 29 | |
| 20260504005531 | 63 | 225 | 2.0 | 5.0 | 0.00 | 0.00 | 0.00 | 29 | |
| 20260504004522 | 63 | 225 | 1.0 | 3.0 | 0.00 | 0.00 | 0.00 | 28 | |
| 20260504003530 | 64 | 226 | 1.0 | 6.0 | 0.00 | 0.00 | 0.00 | 28 | |
| 20260504002522 | 64 | 219 | 1.0 | 3.0 | 0.00 | 0.00 | 0.00 | 27 | |
| 20260504001550 | 64 | 230 | 1.0 | 5.0 | 0.00 | 0.00 | 0.00 | 27 | |
| 20260504000522 | 65 | 219 | 1.0 | 3.0 | 0.00 | 0.00 | 0.00 | 27 | |
| 20260503235530 | 66 | 264 | 1.0 | 5.0 | 0.00 | 0.00 | 0.00 | 26 | |
| 20260503234542 | 66 | 228 | 2.0 | 7.0 | 0.00 | 0.00 | 0.00 | 25 | |
| 20260503233530 | 66 | 236 | 2.0 | 8.0 | 0.00 | 0.00 | 0.00 | 26 | |
| 20260503232522 | 66 | 245 | 2.0 | 6.0 | 0.00 | 0.00 | 0.00 | 26 | |
| 20260503231530 | 67 | 235 | 2.0 | 6.0 | 0.00 | 0.00 | 0.00 | 25 | |
| 20260503230522 | 66 | 271 | 3.0 | 7.0 | 0.00 | 0.00 | 0.00 | 26 | |
| 20260503225530 | 66 | 235 | 3.0 | 8.0 | 0.00 | 0.00 | 0.00 | 25 | |
| 20260503224542 | 67 | 240 | 2.0 | 7.0 | 0.00 | 0.00 | 0.00 | 25 | |
| 20260503223530 | 66 | 227 | 1.0 | 5.0 | 0.00 | 0.00 | 0.00 | 25 | |
| 20260503222523 | 67 | 222 | 1.0 | 5.0 | 0.00 | 0.00 | 0.00 | 25 | |
| 20260503221531 | 68 | 235 | 2.0 | 5.0 | 0.00 | 0.00 | 0.00 | 24 | |
| 20260503220542 | 69 | 230 | 2.0 | 6.0 | 0.00 | 0.00 | 0.00 | 24 | |
| 20260503215530 | 69 | 234 | 2.0 | 6.0 | 0.00 | 0.00 | 0.00 | 24 | |
| 20260503214602 | 68 | 256 | 2.0 | 6.0 | 0.00 | 0.00 | 0.00 | 24 | |
| 20260503213530 | 68 | 241 | 2.0 | 6.0 | 0.00 | 0.00 | 0.00 | 25 | |
| 20260503212523 | 69 | 232 | 3.0 | 8.0 | 0.00 | 0.00 | 0.00 | 24 | |
| 20260503211530 | 68 | 223 | 2.0 | 7.0 | 0.00 | 0.00 | 0.00 | 24 | |
| 20260503210523 | 68 | 246 | 2.0 | 5.0 | 0.00 | 0.00 | 0.00 | 25 | |
| 20260503205530 | 68 | 231 | 3.0 | 7.0 | 0.00 | 0.00 | 0.00 | 24 | |
| 20260503204522 | 68 | 243 | 2.0 | 6.0 | 0.00 | 0.00 | 0.00 | 25 | |
| 20260503203536 | 67 | 229 | 2.0 | 5.0 | 0.00 | 0.00 | 0.00 | 25 | |
| 20260503202523 | 66 | 229 | 2.0 | 7.0 | 0.00 | 0.00 | 0.00 | 26 | |
| 20260503201530 | 66 | 246 | 3.0 | 7.0 | 0.00 | 0.00 | 0.00 | 26 | |
| 20260503200523 | 65 | 272 | 2.0 | 7.0 | 0.00 | 0.00 | 0.00 | 27 | |
| 20260503195531 | 64 | 338 | 2.0 | 7.0 | 0.00 | 0.00 | 0.00 | 27 | |
| 20260503194523 | 65 | 243 | 2.0 | 7.0 | 0.00 | 0.00 | 0.00 | 26 | |
| 20260503193531 | 64 | 226 | 2.0 | 6.0 | 0.00 | 0.00 | 0.00 | 26 | |
| 20260503192522 | 64 | 252 | 3.0 | 10.0 | 0.00 | 0.00 | 0.00 | 26 | |
| 20260503191530 | 64 | 341 | 3.0 | 8.0 | 0.00 | 0.00 | 0.00 | 27 | |
| 20260503190523 | 64 | 9 | 4.0 | 10.0 | 0.00 | 0.00 | 0.00 | 26 | |
| 20260503185530 | 63 | 0 | 3.0 | 8.0 | 0.00 | 0.00 | 0.00 | 26 | |
| 20260503184543 | 62 | 322 | 4.0 | 15.0 | 0.00 | 0.00 | 0.00 | 27 | |
| 20260503183551 | 63 | 7 | 4.0 | 11.0 | 0.00 | 0.00 | 0.00 | 27 | |
| 20260503182523 | 62 | 333 | 3.0 | 14.0 | 0.00 | 0.00 | 0.00 | 28 | |
| 20260503181531 | 62 | 297 | 3.0 | 10.0 | 0.00 | 0.00 | 0.00 | 28 | |
| 20260503180523 | 62 | 348 | 4.0 | 14.0 | 0.00 | 0.00 | 0.00 | 28 | |
| 20260503175531 | 62 | 351 | 5.0 | 13.0 | 0.00 | 0.00 | 0.00 | 28 | |
| 20260503174523 | 62 | 329 | 4.0 | 8.0 | 0.00 | 0.00 | 0.00 | 29 | |
| 20260503173533 | 61 | 350 | 3.0 | 8.0 | 0.00 | 0.00 | 0.00 | 29 | |
| 20260503172539 | 61 | 0 | 4.0 | 11.0 | 0.00 | 0.00 | 0.00 | 30 | |
| 20260503171531 | 60 | 7 | 3.0 | 8.0 | 0.00 | 0.00 | 0.00 | 31 | |
| 20260503170603 | 60 | 342 | 4.0 | 15.0 | 0.00 | 0.00 | 0.00 | 30 | |
| 20260503150523 | 55 | 342 | 2.0 | 7.0 | 0.00 | 0.00 | 0.00 | 34 | |
| 20260503130536 | 47 | 329 | 1.0 | 3.0 | 0.00 | 0.00 | 0.00 | 66 | |
| 20260503110524 | 40 | 0.0 | 0.0 | 0.00 | 0.00 | 0.00 | 96 | ||
| 20260503081534 | 42 | 0.0 | 0.0 | 0.00 | 0.00 | 0.00 | 87 | ||
| 20260503080524 | 43 | 230 | 0.0 | 1.0 | 0.00 | 0.00 | 0.00 | 86 | |
| 20260503072524 | 45 | 230 | 0.0 | 1.0 | 0.00 | 0.00 | 0.00 | 80 | |
| 20260503071552 | 45 | 0.0 | 0.0 | 0.00 | 0.00 | 0.00 | 79 | ||
| 20260503070524 | 46 | 0.0 | 0.0 | 0.00 | 0.00 | 0.00 | 77 | ||
| 20260503054525 | 49 | 0.0 | 0.0 | 0.00 | 0.00 | 0.00 | 74 | ||
| 20260503053532 | 49 | 0.0 | 0.0 | 0.00 | 0.00 | 0.00 | 69 | ||
| 20260503052525 | 49 | 210 | 0.0 | 1.0 | 0.00 | 0.00 | 0.00 | 70 | |
| 20260503051533 | 49 | 0.0 | 0.0 | 0.00 | 0.00 | 0.00 | 72 | ||
| 20260503050525 | 50 | 241 | 0.0 | 1.0 | 0.00 | 0.00 | 0.00 | 73 | |
| 20260503045533 | 51 | 0.0 | 0.0 | 0.00 | 0.00 | 0.00 | 69 | ||
| 20260503044525 | 51 | 0.0 | 0.0 | 0.00 | 0.00 | 0.00 | 66 | ||
| 20260503043533 | 51 | 0.0 | 0.0 | 0.00 | 0.00 | 0.00 | 67 | ||
| 20260503042525 | 51 | 187 | 0.0 | 1.0 | 0.00 | 0.00 | 0.00 | 66 | |
| 20260503041533 | 51 | 193 | 0.0 | 1.0 | 0.00 | 0.00 | 0.00 | 69 | |
| 20260503040525 | 51 | 0.0 | 0.0 | 0.00 | 0.00 | 0.00 | 70 |